| time (UTC) | temp C | wind direction | speed KPH | gust KPH | rain 1hr cm | rain 24hr cm | rain mn cm | humidity % | barometer mb |
| 20260504081528 | 18 | 350 | 0.0 | 9.7 | 0.00 | 0.10 | 0.00 | 76 | 1014.9 |
| 20260504044619 | 13 | 305 | 0.0 | 0.0 | 0.00 | 0.10 | 0.00 | 90 | 1015.1 |
| 20260504043057 | 13 | 305 | 0.0 | 0.0 | 0.00 | 0.10 | 0.00 | 90 | 1015.3 |
| 20260504041556 | 13 | 305 | 0.0 | 0.0 | 0.00 | 0.10 | 0.00 | 90 | 1015.3 |
| 20260504040110 | 13 | 305 | 0.0 | 0.0 | 0.00 | 0.10 | 0.00 | 90 | 1015.3 |
| 20260504034604 | 13 | 305 | 0.0 | 0.0 | 0.00 | 0.10 | 0.00 | 90 | 1015.6 |
| 20260504033055 | 13 | 305 | 0.0 | 0.0 | 0.00 | 0.10 | 0.00 | 90 | 1015.5 |
| 20260504031553 | 13 | 305 | 0.0 | 0.0 | 0.00 | 0.10 | 0.00 | 90 | 1015.8 |
| 20260504030053 | 13 | 305 | 0.0 | 0.0 | 0.00 | 0.10 | 0.00 | 90 | 1015.8 |
| 20260504024552 | 13 | 307 | 0.0 | 0.0 | 0.00 | 0.10 | 0.00 | 90 | 1015.6 |
| 20260504023051 | 13 | 305 | 0.0 | 0.0 | 0.00 | 0.10 | 0.00 | 90 | 1015.5 |
| 20260504021551 | 13 | 305 | 0.0 | 0.0 | 0.00 | 0.10 | 0.00 | 90 | 1015.5 |
| 20260504020049 | 13 | 305 | 0.0 | 0.0 | 0.00 | 0.10 | 0.00 | 90 | 1015.6 |
| 20260504014548 | 13 | 305 | 0.0 | 0.0 | 0.00 | 0.10 | 0.00 | 90 | 1015.7 |
| 20260504013053 | 13 | 304 | 0.0 | 0.0 | 0.00 | 0.10 | 0.00 | 90 | 1015.7 |
| 20260504011545 | 13 | 304 | 0.0 | 0.0 | 0.00 | 0.10 | 0.00 | 91 | 1016.0 |
| 20260504010051 | 13 | 304 | 0.0 | 0.0 | 0.00 | 0.10 | 0.00 | 91 | 1015.9 |
| 20260504004542 | 13 | 311 | 0.0 | 0.0 | 0.00 | 0.10 | 0.00 | 91 | 1016.1 |
| 20260504003040 | 13 | 305 | 4.8 | 9.7 | 0.00 | 0.10 | 0.00 | 91 | 1016.3 |
| 20260504001540 | 13 | 299 | 0.0 | 0.0 | 0.00 | 0.10 | 0.00 | 91 | 1016.4 |
| 20260504000042 | 13 | 300 | 0.0 | 6.4 | 0.00 | 0.10 | 0.00 | 91 | 1016.4 |
| 20260503234538 | 13 | 342 | 0.0 | 0.0 | 0.00 | 0.10 | 0.00 | 91 | 1016.4 |
| 20260503233039 | 13 | 314 | 0.0 | 0.0 | 0.00 | 0.10 | 0.00 | 91 | 1016.6 |
| 20260503231536 | 13 | 319 | 0.0 | 0.0 | 0.00 | 0.10 | 0.00 | 91 | 1016.7 |
| 20260503230035 | 13 | 320 | 0.0 | 0.0 | 0.00 | 0.10 | 0.00 | 91 | 1016.7 |
| 20260503224535 | 13 | 309 | 0.0 | 0.0 | 0.00 | 0.10 | 0.00 | 91 | 1016.8 |
| 20260503223036 | 13 | 312 | 0.0 | 0.0 | 0.00 | 0.10 | 0.00 | 91 | 1016.8 |
| 20260503221533 | 13 | 328 | 0.0 | 0.0 | 0.00 | 0.10 | 0.00 | 91 | 1016.8 |
| 20260503220030 | 13 | 290 | 0.0 | 12.9 | 0.00 | 0.10 | 0.00 | 91 | 1016.9 |
| 20260503214529 | 13 | 306 | 0.0 | 4.8 | 0.00 | 0.10 | 0.10 | 90 | 1016.8 |
| 20260503213028 | 13 | 303 | 0.0 | 0.0 | 0.00 | 0.10 | 0.10 | 91 | 1017.0 |
| 20260503211530 | 13 | 314 | 0.0 | 0.0 | 0.03 | 0.10 | 0.10 | 91 | 1016.8 |
| 20260503210027 | 13 | 313 | 0.0 | 0.0 | 0.05 | 0.10 | 0.10 | 91 | 1017.0 |
| 20260503204526 | 13 | 308 | 1.6 | 9.7 | 0.05 | 0.10 | 0.10 | 90 | 1017.1 |
| 20260503203025 | 13 | 355 | 0.0 | 9.7 | 0.05 | 0.10 | 0.10 | 89 | 1017.2 |
| 20260503201524 | 14 | 319 | 0.0 | 0.0 | 0.05 | 0.08 | 0.08 | 90 | 1017.2 |
| 20260503200022 | 14 | 319 | 0.0 | 0.0 | 0.03 | 0.05 | 0.05 | 90 | 1017.1 |
| 20260503194521 | 14 | 319 | 0.0 | 0.0 | 0.03 | 0.05 | 0.05 | 89 | 1017.0 |
| 20260503193020 | 14 | 350 | 0.0 | 0.0 | 0.03 | 0.05 | 0.05 | 89 | 1016.7 |
| 20260503191530 | 14 | 350 | 0.0 | 0.0 | 0.00 | 0.03 | 0.03 | 89 | 1016.6 |
| 20260503190018 | 14 | 360 | 0.0 | 8.0 | 0.03 | 0.03 | 0.03 | 88 | 1016.6 |
| 20260503184516 | 15 | 48 | 0.0 | 0.0 | 0.03 | 0.03 | 0.03 | 88 | 1016.5 |
| 20260503183016 | 15 | 48 | 0.0 | 0.0 | 0.03 | 0.03 | 0.03 | 88 | 1016.8 |
| 20260503181515 | 15 | 318 | 0.0 | 0.0 | 0.03 | 0.03 | 0.03 | 88 | 1016.6 |
| 20260503180015 | 15 | 317 | 0.0 | 0.0 | 0.00 | 0.00 | 0.00 | 87 | 1016.6 |
| 20260503174514 | 15 | 343 | 0.0 | 0.0 | 0.00 | 0.00 | 0.00 | 87 | 1016.7 |
| 20260503173014 | 15 | 81 | 4.8 | 14.5 | 0.00 | 0.00 | 0.00 | 87 | 1016.4 |
| 20260503171513 | 15 | 98 | 0.0 | 19.3 | 0.00 | 0.00 | 0.00 | 86 | 1016.1 |